TimeCDT,TemperatureF,Dew PointF,Humidity,Sea Level PressureIn,VisibilityMPH,Wind Direction,Wind SpeedMPH,Gust SpeedMPH,PrecipitationIn,Events,Conditions,WindDirDegrees,DateUTC
12:52 AM,52.0,48.0,86,30.09,10.0,NNW,10.4,-,0.00,,Overcast,340,2012-10-10 05:52:00
1:17 AM,51.8,46.4,82,30.11,10.0,North,13.8,-,N/A,,Overcast,350,2012-10-10 06:17:00
1:31 AM,51.8,46.4,82,30.12,10.0,North,10.4,21.9,N/A,,Overcast,350,2012-10-10 06:31:00
1:52 AM,50.0,44.1,80,30.12,10.0,North,11.5,20.7,N/A,,Overcast,360,2012-10-10 06:52:00
2:52 AM,46.9,39.9,77,30.17,10.0,North,8.1,-,N/A,,Scattered Clouds,350,2012-10-10 07:52:00
3:52 AM,43.0,37.9,82,30.17,10.0,North,5.8,-,N/A,,Clear,350,2012-10-10 08:52:00
4:52 AM,43.0,37.9,82,30.18,10.0,North,4.6,-,N/A,,Clear,10,2012-10-10 09:52:00
5:52 AM,41.0,37.0,86,30.19,10.0,Calm,Calm,-,N/A,,Clear,0,2012-10-10 10:52:00
6:52 AM,39.9,37.0,89,30.22,10.0,Calm,Calm,-,N/A,,Clear,0,2012-10-10 11:52:00
7:52 AM,39.9,37.9,93,30.25,10.0,Calm,Calm,-,N/A,,Clear,0,2012-10-10 12:52:00
8:52 AM,45.0,37.9,76,30.28,10.0,North,4.6,-,N/A,,Clear,350,2012-10-10 13:52:00
9:52 AM,48.9,33.1,54,30.30,10.0,ENE,5.8,-,N/A,,Clear,70,2012-10-10 14:52:00
10:52 AM,53.1,32.0,45,30.30,10.0,Calm,Calm,-,N/A,,Clear,0,2012-10-10 15:52:00
11:52 AM,55.0,28.9,37,30.30,10.0,NE,3.5,-,N/A,,Clear,40,2012-10-10 16:52:00
12:52 PM,57.0,30.0,36,30.28,10.0,NNW,6.9,-,N/A,,Clear,330,2012-10-10 17:52:00
1:52 PM,57.9,30.9,36,30.25,10.0,NW,4.6,-,N/A,,Clear,320,2012-10-10 18:52:00
2:52 PM,59.0,30.9,35,30.23,10.0,North,6.9,-,N/A,,Clear,360,2012-10-10 19:52:00
3:52 PM,59.0,30.0,33,30.22,10.0,Calm,Calm,-,N/A,,Clear,0,2012-10-10 20:52:00
4:52 PM,59.0,30.9,35,30.21,10.0,NNE,4.6,-,N/A,,Clear,20,2012-10-10 21:52:00
5:52 PM,57.9,28.9,33,30.20,10.0,Calm,Calm,-,N/A,,Clear,0,2012-10-10 22:52:00
6:52 PM,54.0,30.9,41,30.20,10.0,East,3.5,-,N/A,,Clear,80,2012-10-10 23:52:00
7:52 PM,46.9,34.0,61,30.21,10.0,East,3.5,-,N/A,,Clear,100,2012-10-11 00:52:00
8:52 PM,45.0,35.1,68,30.20,10.0,East,3.5,-,N/A,,Clear,90,2012-10-11 01:52:00
9:52 PM,43.0,34.0,71,30.20,10.0,SE,4.6,-,N/A,,Clear,130,2012-10-11 02:52:00
10:52 PM,44.1,34.0,68,30.20,10.0,SE,5.8,-,N/A,,Clear,140,2012-10-11 03:52:00
11:52 PM,44.1,34.0,68,30.19,10.0,SSE,5.8,-,N/A,,Clear,150,2012-10-11 04:52:00